Location: Consuma
(43.7833°N, 11.5833°E)
Time: 14:47:45
(UTC+00:00)

SL-16 R/B - Pass Details

Date: 17 February 2020
Orbit: 843 x 847 km, 71.0° (Epoch: 27 March)

Event Time Altitude Azimuth Distance (km) Brightness Sun altitude
Exits shadow 02:59:51 42° 86° (E) 1,197 3.3 -34.8°
Drops below altitude 10° 03:04:28 10° 37° (NE) 2,474 5.2 -34.0°
Sets 03:07:01 0° 31° (NNE) 3,413 6.0 -33.6°
